Weather History for MRLM - April, 2014

Change the Weather History Date:

Friday, April 11, 2014

  Actual Average Record
Temperature  
Mean Temperature 76 °F -  
Max Temperature 81 °F 83 °F 87 °F (1998)
Min Temperature 71 °F 74 °F 71 °F (2006)
Cooling Degree Days 12    
Growing Degree Days 26 (Base 50)    
Moisture  
Dew Point 73 °F    
Average Humidity 91    
Maximum Humidity 100    
Minimum Humidity 78    
Precipitation  
Precipitation 0.55 in 0.37 in - ()
Sea Level Pressure  
Sea Level Pressure 29.93 in    
Wind  
Wind Speed 5 mph ()    
Max Wind Speed 9 mph    
Max Gust Speed 26 mph    
Visibility 5.7 miles    
Events Rain    
Averages and records for this station are not official NWS values.
T = Trace of Precipitation, MM = Missing Value Source: Averaged Metar Reports

Daily Weather History Graph

Daily Weather History Graph

Search for Another Location

Airport or City:

Trip Planner

Search our weather history database for the weather conditions in past years. The results will help you decide how hot, cold, wet, or windy it might be!

Date:

Astronomy

Apr. 11, 2014 Rise Set
Actual Time 5:23 AM CST 5:42 PM CST
Civil Twilight 5:02 AM CST 6:03 PM CST
Nautical Twilight 4:37 AM CST 6:28 PM CST
Astronomical Twilight 4:12 AM CST 6:53 PM CST
Moon 2:55 PM CST (4/11) 2:39 AM CST (4/11)
Length of Visible Light 13h 01m
Length of Day
12h 18m
Waxing Gibbous, 87% of the Moon is Illuminated
Apr 11
Waxing Gibbous
Apr 15
Full
Apr 22
Last Quarter
Apr 29
New
May 6
First Quarter

Hourly Weather History & Observations

Time (CST) Temp. Heat Index Dew Point Humidity Pressure Visibility Wind Dir Wind Speed Gust Speed Precip Events Conditions
6:00 AM 74 °F - 72 °F 94% 29.95 in 6 mi West 5.8 mph - - Rain Heavy Rain
6:00 AM 73.4 °F - 73.4 °F 100% 29.93 in 6.2 mi West 5.8 mph - N/A   Drizzle
7:00 AM 75.2 °F - 73.4 °F 94% 29.95 in 6.2 mi SW 8.1 mph - N/A   Light Drizzle
8:00 AM 75.2 °F - 73.4 °F 94% 29.97 in 6.2 mi WSW 9.2 mph - N/A   Light Drizzle
8:36 AM 75.2 °F - 73.4 °F 94% 29.98 in 3.1 mi SW 5.8 mph - N/A Rain Heavy Rain
9:00 AM 74 °F - 73 °F 96% 29.99 in 3 mi SSW 6.9 mph - - Rain Heavy Rain
9:00 AM 75.2 °F - 73.4 °F 94% 29.97 in 3.1 mi SSW 6.9 mph - N/A Rain Heavy Rain
10:00 AM 75.2 °F - 73.4 °F 94% 29.97 in 5.0 mi WSW 5.8 mph - N/A Rain Rain
11:00 AM 75.2 °F - 75.2 °F 100% 29.96 in 6.2 mi SW 5.8 mph - N/A   Drizzle
12:00 PM 76 °F - 73 °F 88% 29.96 in 9 mi WSW 5.8 mph - -   Overcast
12:00 PM 77.0 °F - 73.4 °F 89% 29.94 in 6.2 mi WSW 5.8 mph - N/A   Mostly Cloudy
1:00 PM 78.8 °F - 73.4 °F 83% 29.92 in 6.2 mi WSW 3.5 mph - N/A   Light Drizzle
2:00 PM 80.6 °F 86.2 °F 75.2 °F 84% 29.89 in 6.2 mi SW 3.5 mph - N/A   Mostly Cloudy
3:00 PM 81 °F - 75 °F 78% 29.89 in 9 mi ENE 4.6 mph - -   Overcast
3:00 PM 80.6 °F 86.2 °F 75.2 °F 84% 29.88 in 6.2 mi SW 4.6 mph - N/A   Mostly Cloudy
3:36 PM 77.0 °F - 69.8 °F 78% 29.89 in 2.5 mi ESE 9.2 mph 26.5 mph N/A Rain Rain
4:00 PM 73.4 °F - 71.6 °F 94% 29.89 in 6.2 mi SE 2.3 mph - N/A   Light Drizzle
5:00 PM 73.4 °F - 71.6 °F 94% 29.89 in 6.2 mi NW 3.5 mph - N/A   Light Drizzle
6:00 PM 72 °F - 71 °F 94% 29.92 in 6 mi WSW 6.9 mph - - Rain Drizzle
6:00 PM 71.6 °F - 69.8 °F 94% 29.90 in 6.2 mi WSW 6.9 mph - N/A   Light Drizzle